Notices

What's New in latest Release from April 7th, 2021:

- Updated Glossary, including Speed of Maximum Gust, and Total Hourly Precipitation

- Updated national and regional climate services offices contacts and prices information

- Addition of station inventory lists for 1981-2010, 1971-2000, and 1961-1990 Normals.

If you haven't already, please take our survey and provide feedback about our website: https://eccc.sondage-survey.ca/f/LanguageSelection.aspx?s=442ca660-fcf1-47c0-95a9-59707d6fd709

Hourly Data Report for November 13, 2018

CARBERRY CS
MANITOBA
Current Station Operator: ECCC - MSC

49°54'20.900" N
99°21'26.800" W
383.50 m
5010547
71170
WZE

Download Data

Hourly Data (November 2018)
Hourly Data Report for November 13, 2018
TIME
LST
Temp Definition
°C
Dew Point Definition
°C
Rel Hum Definition
%
Precip. Amount Definition
mm

Wind Dir Definition
10's deg

Wind Spd Definition
km/h
Visibility Definition
km
Stn Press Definition
kPa
Hmdx Definition


Wind Chill Definition


Weather Definition


00:00 -16.4 -18.6 83 0.0 21 5   98.34   -20 LegendNANA
01:00 -15.5 -17.7 83 0.0 24 4   98.33   -18 LegendNANA
02:00 -14.9 -17.2 83 0.0 22 4   98.34   -18 LegendNANA
03:00 -15.3 -17.4 84 0.0 26 4   98.33   -18 LegendNANA
04:00 -14.9 -17.0 84 0.0 27 4   98.29   -18 LegendNANA
05:00 -14.5 -16.4 85 0.0 19 7   98.20   -19 LegendNANA
06:00 -14.3 -16.3 85 0.0 18 5   98.16   -18 LegendNANA
07:00 -13.7 -15.9 83 0.0 20 6   98.12   -18 LegendNANA
08:00 -13.0 -15.6 81 0.0 18 3   98.14   -15 LegendNANA
09:00 -12.4 -15.2 80 0.0 16 6   98.09   -16 LegendNANA
10:00 -11.2 -14.5 77 0.0 19 7   98.10   -15 LegendNANA
11:00 -10.1 -13.6 75 0.0 19 7   98.10   -14 LegendNANA
12:00 -8.6 -13.0 71 0.0 16 6   98.02   -12 LegendNANA
13:00 -8.0 -12.3 71 0.0 14 11   97.92   -13 LegendNANA
14:00 -7.2 -11.8 70 0.0 13 11   97.88   -12 LegendNANA
15:00 -6.4 -11.0 69 0.0 16 9   97.82   -11 LegendNANA
16:00 -6.5 -11.0 70 0.0 14 8   97.77   -10 LegendNANA
17:00 -7.0 -10.7 75 0.0 12 8   97.77   -11 LegendNANA
18:00 -7.0 -10.4 77 0.0 14 7   97.73   -11 LegendNANA
19:00 -7.1 -10.5 77 0.0 13 8   97.68   -11 LegendNANA
20:00 -7.0 -9.8 81 0.0 14 8   97.63   -11 LegendNANA
21:00 -6.6 -9.1 82 0.0 13 8   97.59   -10 LegendNANA
22:00 -7.2 -9.3 85 0.0 11 3   97.64   -9 LegendNANA
23:00 -9.4 -10.7 90 0.0 9 6   97.58   -13 LegendNANA

Notes on Data Quality.

Legend

  • E = Estimated
  • M = Missing
  • NA = Not Available*
  • [empty] = Indicates an unobserved value
Date modified: